When you browse on this site, cookies collect data to enhance your experience and personalize the content and advertising you see.
Visit our Privacy Policy to learn more. By continuing to use the site, you agree to this use of cookies and data.
  • In Deutschland
  • Länderverzeichnis
  • Für 7 Tage
  • Wassertemperatur
  • Wetterkarte
  • Widgets
  • user-avatar
    Anmelden

    Stündliche Wetter Wlora

    Heute, 15 November, Freitag

    Zeit Temperatur Niederschläge Wind Luftdruck Luftfeuchtigkeit
    00:00 +15°C° 0.2 mm 7 m/S 759 mmHg 71%
    01:00 +15°C° 0 mm 7 m/S 759 mmHg 71%
    02:00 +15°C° 0.1 mm 7 m/S 759 mmHg 73%
    03:00 +15°C° 0.1 mm 8 m/S 759 mmHg 75%
    04:00 +13°C° 0.1 mm 9 m/S 759 mmHg 77%
    05:00 +15°C° 0.1 mm 9 m/S 759 mmHg 77%
    06:00 +14°C° 0.1 mm 10 m/S 759 mmHg 77%
    07:00 +14°C° 0.1 mm 10 m/S 760 mmHg 77%
    08:00 +16°C° 0 mm 10 m/S 760 mmHg 74%
    09:00 +18°C° 0 mm 11 m/S 760 mmHg 71%
    10:00 +19°C° 0 mm 11 m/S 760 mmHg 68%
    11:00 +19°C° 0.1 mm 11 m/S 760 mmHg 68%
    12:00 +19°C° 0.1 mm 11 m/S 760 mmHg 69%
    13:00 +21°C° 0.1 mm 11 m/S 761 mmHg 69%
    14:00 +19°C° 0.1 mm 11 m/S 761 mmHg 73%
    15:00 +19°C° 0.1 mm 11 m/S 761 mmHg 76%
    16:00 +18°C° 0.1 mm 11 m/S 761 mmHg 79%
    17:00 +17°C° 0 mm 11 m/S 761 mmHg 81%
    18:00 +17°C° 0 mm 11 m/S 761 mmHg 82%
    19:00 +16°C° 0 mm 11 m/S 762 mmHg 83%
    20:00 +16°C° 0.1 mm 11 m/S 762 mmHg 82%
    21:00 +16°C° 0.1 mm 11 m/S 763 mmHg 81%
    22:00 +16°C° 0.1 mm 11 m/S 763 mmHg 80%
    23:00 +16°C° 0.1 mm 11 m/S 763 mmHg 80%

    Morgen, 16 November, Samstag

    Zeit Temperatur Niederschläge Wind Luftdruck Luftfeuchtigkeit
    00:00 +16°C° 0.1 mm 10 m/S 763 mmHg 80%
    01:00 +16°C° 0.1 mm 10 m/S 763 mmHg 80%
    02:00 +16°C° 0 mm 10 m/S 763 mmHg 81%
    03:00 +16°C° 0 mm 10 m/S 763 mmHg 82%
    04:00 +16°C° 0 mm 10 m/S 763 mmHg 83%
    05:00 +16°C° 0 mm 9 m/S 763 mmHg 82%
    06:00 +15°C° 0 mm 9 m/S 763 mmHg 82%
    07:00 +15°C° 0 mm 9 m/S 763 mmHg 82%
    08:00 +17°C° 0.1 mm 9 m/S 763 mmHg 76%
    09:00 +18°C° 0.1 mm 9 m/S 763 mmHg 71%
    10:00 +19°C° 0.1 mm 9 m/S 763 mmHg 65%
    11:00 +19°C° 0.1 mm 9 m/S 763 mmHg 64%
    12:00 +21°C° 0.1 mm 9 m/S 763 mmHg 62%
    13:00 +21°C° 0.1 mm 9 m/S 762 mmHg 60%
    14:00 +21°C° 0 mm 9 m/S 762 mmHg 65%
    15:00 +19°C° 0 mm 9 m/S 762 mmHg 70%
    16:00 +18°C° 0 mm 9 m/S 762 mmHg 75%
    17:00 +18°C° 0 mm 9 m/S 762 mmHg 76%
    18:00 +17°C° 0 mm 9 m/S 762 mmHg 77%
    19:00 +17°C° 0 mm 9 m/S 762 mmHg 78%
    20:00 +17°C° 0 mm 9 m/S 762 mmHg 76%
    21:00 +16°C° 0 mm 9 m/S 762 mmHg 74%
    22:00 +16°C° 0 mm 9 m/S 762 mmHg 72%
    23:00 +16°C° 0 mm 9 m/S 761 mmHg 72%

    übermorgen, 17 November, Sonntag

    Zeit Temperatur Niederschläge Wind Luftdruck Luftfeuchtigkeit
    00:00 +16°C° 0 mm 9 m/S 761 mmHg 73%
    01:00 +16°C° 0 mm 9 m/S 761 mmHg 73%
    02:00 +16°C° 0 mm 9 m/S 761 mmHg 73%
    03:00 +16°C° 0 mm 9 m/S 760 mmHg 72%
    04:00 +16°C° 0 mm 9 m/S 760 mmHg 72%
    05:00 +16°C° 0 mm 10 m/S 760 mmHg 72%
    06:00 +16°C° 0 mm 10 m/S 760 mmHg 71%
    07:00 +16°C° 0 mm 10 m/S 760 mmHg 71%
    08:00 +17°C° 0.1 mm 10 m/S 760 mmHg 67%
    09:00 +18°C° 0.1 mm 11 m/S 760 mmHg 63%
    10:00 +19°C° 0.1 mm 11 m/S 760 mmHg 59%
    11:00 +21°C° 0.1 mm 11 m/S 759 mmHg 58%
    12:00 +21°C° 0.1 mm 12 m/S 759 mmHg 56%
    13:00 +22°C° 0.1 mm 12 m/S 759 mmHg 55%
    14:00 +20°C° 0.2 mm 13 m/S 759 mmHg 59%
    15:00 +19°C° 0.2 mm 13 m/S 759 mmHg 64%
    16:00 +18°C° 0.2 mm 13 m/S 759 mmHg 68%
    17:00 +18°C° 0.7 mm 13 m/S 759 mmHg 71%
    18:00 +18°C° 0.7 mm 13 m/S 759 mmHg 73%
    19:00 +17°C° 0.7 mm 13 m/S 759 mmHg 75%
    20:00 +17°C° 3.7 mm 11 m/S 759 mmHg 80%
    21:00 +17°C° 3.7 mm 9 m/S 760 mmHg 84%
    22:00 +16°C° 3.7 mm 6 m/S 760 mmHg 88%
    23:00 +16°C° 2.2 mm 6 m/S 760 mmHg 88%

    18 November, Montag

    Zeit Temperatur Niederschläge Wind Luftdruck Luftfeuchtigkeit
    00:00 +16°C° 2.2 mm 6 m/S 760 mmHg 88%
    01:00 +16°C° 2.2 mm 5 m/S 761 mmHg 87%
    02:00 +15°C° 0.1 mm 4 m/S 761 mmHg 87%
    03:00 +16°C° 0.1 mm 3 m/S 761 mmHg 87%
    04:00 +15°C° 0.1 mm 2 m/S 762 mmHg 87%
    05:00 +15°C° 0 mm 2 m/S 762 mmHg 86%
    06:00 +15°C° 0 mm 2 m/S 762 mmHg 86%
    07:00 +15°C° 0 mm 1 m/S 762 mmHg 85%
    08:00 +16°C° 0 mm 1 m/S 763 mmHg 79%
    09:00 +17°C° 0 mm 2 m/S 763 mmHg 72%
    10:00 +19°C° 0 mm 2 m/S 763 mmHg 65%
    11:00 +19°C° 0 mm 2 m/S 763 mmHg 65%
    12:00 +19°C° 0 mm 3 m/S 763 mmHg 64%
    13:00 +20°C° 0 mm 3 m/S 763 mmHg 64%
    14:00 +19°C° 0 mm 4 m/S 763 mmHg 68%
    15:00 +18°C° 0 mm 4 m/S 763 mmHg 72%
    16:00 +18°C° 0 mm 4 m/S 763 mmHg 77%
    17:00 +16°C° 0 mm 5 m/S 763 mmHg 78%
    18:00 +16°C° 0 mm 5 m/S 763 mmHg 79%
    19:00 +15°C° 0 mm 6 m/S 763 mmHg 80%
    20:00 +15°C° 0 mm 6 m/S 763 mmHg 81%
    21:00 +15°C° 0 mm 5 m/S 763 mmHg 81%
    22:00 +15°C° 0 mm 5 m/S 763 mmHg 82%
    23:00 +15°C° 0 mm 5 m/S 763 mmHg 82%

    19 November, Dienstag

    Zeit Temperatur Niederschläge Wind Luftdruck Luftfeuchtigkeit
    00:00 +15°C° 0 mm 6 m/S 763 mmHg 82%
    01:00 +15°C° 0 mm 6 m/S 763 mmHg 82%
    02:00 +15°C° 0 mm 5 m/S 763 mmHg 82%
    03:00 +15°C° 0 mm 5 m/S 763 mmHg 83%
    04:00 +15°C° 0 mm 5 m/S 763 mmHg 83%
    05:00 +14°C° 0.1 mm 5 m/S 763 mmHg 83%
    06:00 +14°C° 0.1 mm 5 m/S 763 mmHg 83%
    07:00 +14°C° 0.1 mm 5 m/S 763 mmHg 83%
    08:00 +16°C° 0.4 mm 5 m/S 763 mmHg 78%
    09:00 +17°C° 0.4 mm 5 m/S 763 mmHg 74%
    10:00 +19°C° 0.4 mm 5 m/S 763 mmHg 69%
    11:00 +19°C° 0.3 mm 5 m/S 763 mmHg 69%
    12:00 +20°C° 0.3 mm 6 m/S 762 mmHg 69%
    13:00 +20°C° 0.3 mm 6 m/S 762 mmHg 69%
    14:00 +19°C° 0.2 mm 6 m/S 762 mmHg 73%
    15:00 +17°C° 0.2 mm 7 m/S 762 mmHg 76%
    16:00 +16°C° 0.2 mm 7 m/S 761 mmHg 80%
    17:00 +16°C° 0.1 mm 7 m/S 762 mmHg 81%
    18:00 +16°C° 0.1 mm 8 m/S 762 mmHg 81%
    19:00 +16°C° 0.1 mm 8 m/S 762 mmHg 81%
    20:00 +15°C° 0.4 mm 8 m/S 762 mmHg 81%
    21:00 +15°C° 0.4 mm 8 m/S 762 mmHg 81%
    22:00 +15°C° 0.4 mm 8 m/S 762 mmHg 81%
    23:00 +15°C° 1 mm 8 m/S 762 mmHg 81%

    20 November, Mittwoch

    Zeit Temperatur Niederschläge Wind Luftdruck Luftfeuchtigkeit
    00:00 +15°C° 1 mm 8 m/S 761 mmHg 81%
    01:00 +15°C° 1 mm 7 m/S 761 mmHg 81%
    02:00 +15°C° 1 mm 7 m/S 761 mmHg 83%
    03:00 +14°C° 1 mm 7 m/S 761 mmHg 85%
    04:00 +14°C° 1 mm 7 m/S 761 mmHg 86%
    05:00 +14°C° 0.4 mm 6 m/S 761 mmHg 86%
    06:00 +14°C° 0.4 mm 6 m/S 762 mmHg 86%
    07:00 +14°C° 0.4 mm 5 m/S 762 mmHg 86%
    08:00 +15°C° 0.2 mm 5 m/S 762 mmHg 81%
    09:00 +16°C° 0.2 mm 5 m/S 763 mmHg 77%
    10:00 +17°C° 0.2 mm 5 m/S 763 mmHg 72%
    11:00 +18°C° 0.2 mm 4 m/S 763 mmHg 71%
    12:00 +18°C° 0.2 mm 4 m/S 763 mmHg 69%
    13:00 +19°C° 0.2 mm 3 m/S 762 mmHg 68%
    14:00 +18°C° 0.1 mm 3 m/S 763 mmHg 72%
    15:00 +17°C° 0.1 mm 2 m/S 763 mmHg 76%
    16:00 +17°C° 0.1 mm 2 m/S 763 mmHg 80%
    17:00 +16°C° 0.2 mm 2 m/S 763 mmHg 81%
    18:00 +16°C° 0.2 mm 2 m/S 763 mmHg 83%
    19:00 +15°C° 0.2 mm 2 m/S 763 mmHg 85%
    20:00 +15°C° 0.4 mm 2 m/S 763 mmHg 84%
    21:00 +15°C° 0.4 mm 2 m/S 764 mmHg 83%
    22:00 +14°C° 0.4 mm 3 m/S 764 mmHg 82%
    23:00 +14°C° 0.4 mm 3 m/S 764 mmHg 82%
    Mehr zeigen